TimeCST,TemperatureF,Dew PointF,Humidity,Sea Level PressureIn,VisibilityMPH,Wind Direction,Wind SpeedMPH,Gust SpeedMPH,PrecipitationIn,Events,Conditions,WindDirDegrees,DateUTC
12:15 AM,32.0,28.4,87,30.19,10.0,North,24.2,28.8,N/A,Rain,Light Rain,360,2013-03-05 06:15:00
12:35 AM,32.0,28.4,87,30.20,10.0,North,21.9,-,N/A,,Overcast,360,2013-03-05 06:35:00
12:55 AM,32.0,28.4,87,30.22,10.0,North,18.4,-,N/A,,Overcast,360,2013-03-05 06:55:00
1:15 AM,32.0,28.4,87,30.22,10.0,North,15.0,-,N/A,,Overcast,350,2013-03-05 07:15:00
1:35 AM,32.0,28.4,87,30.22,10.0,North,17.3,23.0,N/A,,Overcast,360,2013-03-05 07:35:00
2:15 AM,32.0,28.4,87,30.24,10.0,North,15.0,-,N/A,,Mostly Cloudy,350,2013-03-05 08:15:00
2:35 AM,32.0,28.4,87,30.24,10.0,North,16.1,-,N/A,,Scattered Clouds,350,2013-03-05 08:35:00
2:55 AM,32.0,28.4,87,30.25,10.0,North,13.8,-,N/A,,Scattered Clouds,350,2013-03-05 08:55:00
3:15 AM,30.2,26.6,86,30.27,10.0,North,13.8,-,N/A,,Scattered Clouds,350,2013-03-05 09:15:00
3:35 AM,30.2,26.6,86,30.26,10.0,North,16.1,-,N/A,,Clear,360,2013-03-05 09:35:00
3:55 AM,30.2,24.8,80,30.28,10.0,North,11.5,18.4,N/A,,Clear,360,2013-03-05 09:55:00
4:15 AM,28.4,23.0,80,30.27,10.0,North,11.5,-,N/A,,Clear,360,2013-03-05 10:15:00
4:55 AM,28.4,21.2,74,30.30,10.0,North,11.5,-,N/A,,Clear,350,2013-03-05 10:55:00
5:15 AM,26.6,21.2,80,30.32,10.0,NNW,10.4,-,N/A,,Clear,340,2013-03-05 11:15:00
5:35 AM,26.6,21.2,80,30.33,10.0,NNW,10.4,-,N/A,,Clear,340,2013-03-05 11:35:00
5:55 AM,26.6,19.4,74,30.33,10.0,North,12.7,-,N/A,,Clear,350,2013-03-05 11:55:00
6:15 AM,26.6,17.6,69,30.34,10.0,North,11.5,-,N/A,,Clear,350,2013-03-05 12:15:00
6:35 AM,24.8,17.6,74,30.34,10.0,North,13.8,-,N/A,,Clear,360,2013-03-05 12:35:00
7:15 AM,24.8,17.6,74,30.34,10.0,North,11.5,-,N/A,,Clear,350,2013-03-05 13:15:00
7:35 AM,24.8,15.8,69,30.35,10.0,North,13.8,-,N/A,,Clear,360,2013-03-05 13:35:00
7:55 AM,26.6,15.8,64,30.36,10.0,North,13.8,18.4,N/A,,Clear,350,2013-03-05 13:55:00
8:15 AM,28.4,17.6,64,30.38,10.0,NNW,12.7,-,N/A,,Clear,330,2013-03-05 14:15:00
8:35 AM,28.4,15.8,59,30.39,10.0,NNW,13.8,-,N/A,,Clear,330,2013-03-05 14:35:00
8:55 AM,30.2,17.6,60,30.40,10.0,NW,15.0,-,N/A,,Clear,320,2013-03-05 14:55:00
9:15 AM,32.0,19.4,60,30.41,10.0,NW,18.4,-,N/A,,Clear,310,2013-03-05 15:15:00
9:35 AM,32.0,17.6,55,30.42,10.0,NNW,21.9,26.5,N/A,,Clear,340,2013-03-05 15:35:00
9:55 AM,32.0,10.4,41,30.41,10.0,North,19.6,28.8,N/A,,Clear,360,2013-03-05 15:55:00
10:15 AM,33.8,8.6,35,30.42,10.0,North,19.6,27.6,N/A,,Clear,350,2013-03-05 16:15:00
10:35 AM,33.8,8.6,35,30.41,10.0,North,19.6,25.3,N/A,,Clear,350,2013-03-05 16:35:00
10:55 AM,35.6,8.6,33,30.41,10.0,NNW,19.6,25.3,N/A,,Clear,340,2013-03-05 16:55:00
11:15 AM,35.6,8.6,33,30.41,10.0,NNW,17.3,24.2,N/A,,Clear,340,2013-03-05 17:15:00
11:35 AM,37.4,10.4,33,30.41,10.0,North,16.1,24.2,N/A,,Clear,350,2013-03-05 17:35:00
12:15 PM,37.4,10.4,33,30.40,10.0,North,11.5,20.7,N/A,,Clear,350,2013-03-05 18:15:00
12:35 PM,39.2,10.4,31,30.40,10.0,North,12.7,20.7,N/A,,Clear,360,2013-03-05 18:35:00
12:55 PM,41.0,10.4,29,30.39,10.0,NNW,13.8,19.6,N/A,,Clear,340,2013-03-05 18:55:00
1:15 PM,41.0,10.4,29,30.39,10.0,NNW,17.3,-,N/A,,Clear,340,2013-03-05 19:15:00
1:35 PM,41.0,12.2,31,30.38,10.0,NW,11.5,19.6,N/A,,Clear,310,2013-03-05 19:35:00
1:55 PM,42.8,12.2,29,30.37,10.0,North,13.8,20.7,N/A,,Clear,350,2013-03-05 19:55:00
2:15 PM,42.8,12.2,29,30.36,10.0,NNW,10.4,18.4,N/A,,Clear,330,2013-03-05 20:15:00
2:35 PM,42.8,12.2,29,30.35,10.0,NW,5.8,11.5,N/A,,Clear,320,2013-03-05 20:35:00
2:55 PM,44.6,12.2,27,30.35,10.0,NNW,10.4,17.3,N/A,,Clear,340,2013-03-05 20:55:00
3:15 PM,44.6,12.2,27,30.34,10.0,NW,8.1,-,N/A,,Clear,320,2013-03-05 21:15:00
3:35 PM,44.6,12.2,27,30.34,10.0,NNW,10.4,-,N/A,,Clear,340,2013-03-05 21:35:00
3:55 PM,44.6,12.2,27,30.33,10.0,North,8.1,17.3,N/A,,Clear,10,2013-03-05 21:55:00
4:15 PM,44.6,12.2,27,30.34,10.0,NW,4.6,-,N/A,,Clear,320,2013-03-05 22:15:00
4:35 PM,44.6,12.2,27,30.33,10.0,Calm,Calm,-,N/A,,Clear,0,2013-03-05 22:35:00
4:55 PM,44.6,12.2,27,30.33,10.0,North,8.1,-,N/A,,Clear,360,2013-03-05 22:55:00
5:15 PM,44.6,12.2,27,30.33,10.0,Calm,Calm,-,N/A,,Clear,0,2013-03-05 23:15:00
5:35 PM,44.6,12.2,27,30.33,10.0,North,6.9,-,N/A,,Clear,360,2013-03-05 23:35:00
5:55 PM,44.6,12.2,27,30.33,10.0,NNW,3.5,-,N/A,,Clear,340,2013-03-05 23:55:00
6:15 PM,42.8,12.2,29,30.33,10.0,Calm,Calm,-,N/A,,Clear,0,2013-03-06 00:15:00
6:35 PM,39.2,15.8,39,30.33,10.0,North,4.6,-,N/A,,Clear,360,2013-03-06 00:35:00
6:55 PM,41.0,15.8,36,30.33,10.0,Calm,Calm,-,N/A,,Clear,0,2013-03-06 00:55:00
7:15 PM,37.4,14.0,38,30.33,10.0,Calm,Calm,-,N/A,,Clear,0,2013-03-06 01:15:00
7:35 PM,39.2,12.2,33,30.34,10.0,Calm,Calm,-,N/A,,Clear,0,2013-03-06 01:35:00
7:55 PM,37.4,12.2,36,30.34,10.0,Calm,Calm,-,N/A,,Clear,0,2013-03-06 01:55:00
8:15 PM,37.4,14.0,38,30.34,10.0,ESE,3.5,-,N/A,,Clear,110,2013-03-06 02:15:00
8:35 PM,35.6,14.0,41,30.33,10.0,East,5.8,-,N/A,,Clear,90,2013-03-06 02:35:00
8:55 PM,35.6,14.0,41,30.34,10.0,East,4.6,-,N/A,,Clear,100,2013-03-06 02:55:00
9:15 PM,33.8,14.0,44,30.34,10.0,ESE,5.8,-,N/A,,Clear,120,2013-03-06 03:15:00
9:35 PM,32.0,14.0,48,30.34,10.0,SE,4.6,-,N/A,,Clear,130,2013-03-06 03:35:00
9:55 PM,33.8,14.0,44,30.34,10.0,SE,8.1,-,N/A,,Clear,130,2013-03-06 03:55:00
10:15 PM,33.8,14.0,44,30.34,10.0,SE,6.9,-,N/A,,Clear,130,2013-03-06 04:15:00
10:35 PM,32.0,14.0,48,30.34,10.0,SE,6.9,-,N/A,,Clear,140,2013-03-06 04:35:00
10:55 PM,32.0,14.0,48,30.34,10.0,SE,8.1,-,N/A,,Clear,140,2013-03-06 04:55:00
11:15 PM,32.0,14.0,48,30.34,10.0,SSE,9.2,-,N/A,,Clear,150,2013-03-06 05:15:00
11:35 PM,32.0,15.8,51,30.34,10.0,SSE,8.1,-,N/A,,Clear,160,2013-03-06 05:35:00
11:55 PM,32.0,15.8,51,30.33,10.0,SSE,9.2,-,N/A,,Clear,160,2013-03-06 05:55:00